This demonstration page uses our WeatherBlox Daily Observations layout. Learn more.

Left ArrowRight Arrow

34.16533, -84.80231

Hourly Observations for February 6, 2022

Temp ( °F °C ) Dew Point ( °F °C ) Humidity (%) Winds ( mph kmh ) Pressure ( in mb ) Visibility ( mi km ) Precip ( " mm )
12:15 am 00:15 Clear 27 -3 23 -5 86 86 Calm 30.43 1030 10 16 0.00 0.00
12:35 am 00:35 Clear 27 -3 21 -6 80 80 Calm 30.43 1030 10 16 0.00 0.00
12:55 am 00:55 Clear 27 -3 23 -5 86 86 Calm 30.43 1030 10 16 0.00 0.00
1:15 am 01:15 Clear 27 -3 23 -5 86 86 E 5 7 30.43 1030 10 16 0.00 0.00
1:35 am 01:35 Clear 27 -3 23 -5 86 86 Calm 30.42 1030 10 16 0.00 0.00
1:55 am 01:55 Clear 25 -4 23 -5 93 93 Calm 30.42 1030 10 16 0.00 0.00
2:15 am 02:15 Clear 25 -4 23 -5 93 93 Calm 30.42 1030 10 16 0.00 0.00
2:35 am 02:35 Clear 25 -4 23 -5 93 93 Calm 30.42 1030 10 16 0.00 0.00
2:55 am 02:55 Clear 25 -4 23 -5 93 93 Calm 30.42 1030 10 16 0.00 0.00
3:15 am 03:15 Clear 25 -4 23 -5 93 93 Calm 30.41 1030 10 16 0.00 0.00
3:35 am 03:35 Clear 25 -4 23 -5 93 93 Calm 30.41 1030 10 16 0.00 0.00
3:55 am 03:55 Clear 25 -4 21 -6 86 86 Calm 30.41 1030 10 16 0.00 0.00
4:15 am 04:15 Clear 25 -4 23 -5 93 93 Calm 30.41 1030 10 16 0.00 0.00
4:35 am 04:35 Clear 25 -4 23 -5 93 93 Calm 30.42 1030 10 16 0.00 0.00
4:55 am 04:55 Clear 25 -4 23 -5 93 93 Calm 30.42 1030 10 16 0.00 0.00
5:15 am 05:15 Clear 27 -3 23 -5 86 86 Calm 30.42 1030 10 16 0.00 0.00
5:35 am 05:35 Clear 30 -1 21 -6 69 69 VRB 5 7 30.41 1030 10 16 0.00 0.00
5:55 am 05:55 Clear 30 -1 21 -6 69 69 ESE 5 7 30.41 1030 10 16 0.00 0.00
6:15 am 06:15 Clear 28 -2 21 -6 74 74 Calm 30.43 1030 10 16 0.00 0.00
6:35 am 06:35 Clear 30 -1 21 -6 69 69 Calm 30.42 1030 10 16 0.00 0.00
6:55 am 06:55 Clear 30 -1 21 -6 69 69 ESE 5 7 30.43 1031 10 16 0.00 0.00
7:15 am 07:15 Clear 30 -1 21 -6 69 69 ESE 6 9 30.43 1031 10 16 0.00 0.00
7:35 am 07:35 Sunny 30 -1 21 -6 69 69 E 5 7 30.43 1031 10 16 0.00 0.00
7:55 am 07:55 Sunny 30 -1 21 -6 69 69 ESE 7 11 30.43 1031 10 16 0.00 0.00
8:15 am 08:15 Sunny 32 0 19 -7 60 60 ESE 9 15 30.43 1030 10 16 0.00 0.00
8:35 am 08:35 Sunny 32 0 19 -7 60 60 E 9 15 30.43 1030 10 16 0.00 0.00
8:55 am 08:55 Sunny 34 1 19 -7 56 56 E 9 15 30.44 1031 10 16 0.00 0.00
9:15 am 09:15 Sunny 36 2 18 -8 48 48 ESE 13 20 30.43 1031 10 16 0.00 0.00
9:35 am 09:35 Sunny 36 2 19 -7 52 52 E 9 15 30.43 1031 10 16 0.00 0.00
9:55 am 09:55 Sunny 37 3 19 -7 48 48 VRB 7 11 30.43 1030 10 16 0.00 0.00
10:15 am 10:15 Sunny 39 4 18 -8 42 42 E 10 17 30.43 1030 10 16 0.00 0.00
10:35 am 10:35 Sunny 39 4 18 -8 42 42 E 14 22 30.42 1030 10 16 0.00 0.00
10:55 am 10:55 Sunny 41 5 18 -8 39 39 E 10 17 30.42 1030 10 16 0.00 0.00
11:15 am 11:15 Sunny 43 6 16 -9 34 34 ESE 10 17 30.42 1030 10 16 0.00 0.00
11:35 am 11:35 Sunny 43 6 16 -9 34 34 ESE 9 15 30.42 1030 10 16 0.00 0.00
11:55 am 11:55 Sunny 43 6 18 -8 36 36 ESE 8 13 30.42 1030 10 16 0.00 0.00
12:15 pm 12:15 Sunny 43 6 16 -9 34 34 E 8 13 30.41 1030 10 16 0.00 0.00
12:35 pm 12:35 Sunny 45 7 18 -8 34 34 VRB 7 11 30.40 1029 10 16 0.00 0.00
12:55 pm 12:55 Sunny 45 7 18 -8 34 34 E 8 13 30.38 1029 10 16 0.00 0.00
1:15 pm 13:15 Sunny 45 7 18 -8 34 34 ENE 7 11 30.37 1028 10 16 0.00 0.00
1:35 pm 13:35 Sunny 46 8 18 -8 32 32 VRB 5 7 30.36 1028 10 16 0.00 0.00
1:55 pm 13:55 Sunny 46 8 19 -7 34 34 ENE 6 9 30.35 1028 10 16 0.00 0.00
2:15 pm 14:15 Sunny 48 9 21 -6 34 34 VRB 6 9 30.33 1027 10 16 0.00 0.00
2:35 pm 14:35 Sunny 46 8 19 -7 34 34 NE 8 13 30.32 1027 10 16 0.00 0.00
2:55 pm 14:55 Sunny 48 9 21 -6 34 34 ENE 3 6 30.30 1026 10 16 0.00 0.00
3:15 pm 15:15 Sunny 48 9 21 -6 34 34 VRB 7 11 30.29 1026 10 16 0.00 0.00
3:35 pm 15:35 Sunny 50 10 23 -5 35 35 E 8 13 30.28 1025 10 16 0.00 0.00
3:55 pm 15:55 Sunny 50 10 21 -6 32 32 E 9 15 30.27 1025 10 16 0.00 0.00
4:15 pm 16:15 Sunny 52 11 21 -6 30 30 SSE 9 15 30.27 1025 10 16 0.00 0.00
4:35 pm 16:35 Sunny 52 11 23 -5 32 32 ESE 9 15 30.26 1025 10 16 0.00 0.00
4:55 pm 16:55 Sunny 50 10 21 -6 32 32 SSE 8 13 30.27 1025 10 16 0.00 0.00
5:15 pm 17:15 Sunny 50 10 23 -5 35 35 E 6 9 30.27 1025 10 16 0.00 0.00
5:35 pm 17:35 Sunny 48 9 23 -5 37 37 VRB 5 7 30.27 1025 10 16 0.00 0.00
5:55 pm 17:55 Sunny 48 9 25 -4 40 40 E 5 7 30.27 1025 10 16 0.00 0.00
6:15 pm 18:15 Clear 46 8 23 -5 40 40 Calm 30.28 1025 10 16 0.00 0.00
6:35 pm 18:35 Clear 46 8 23 -5 40 40 Calm 30.29 1026 10 16 0.00 0.00
6:55 pm 18:55 Clear 45 7 25 -4 46 46 Calm 30.29 1026 10 16 0.00 0.00
7:15 pm 19:15 Clear 43 6 27 -3 53 53 Calm 30.30 1026 10 16 0.00 0.00
7:35 pm 19:35 Mostly Clear 43 6 25 -4 49 49 E 3 6 30.31 1026 10 16 0.00 0.00
7:55 pm 19:55 Mostly Clear 41 5 27 -3 57 57 Calm 30.31 1027 10 16 0.00 0.00
8:15 pm 20:15 Mostly Clear 41 5 27 -3 57 57 Calm 30.32 1027 10 16 0.00 0.00
8:35 pm 20:35 Clear 39 4 27 -3 61 61 E 5 7 30.33 1027 10 16 0.00 0.00
8:55 pm 20:55 Clear 37 3 30 -1 75 75 E 3 6 30.33 1027 10 16 0.00 0.00
9:15 pm 21:15 Clear 37 3 28 -2 70 70 Calm 30.33 1027 10 16 0.00 0.00
9:35 pm 21:35 Clear 37 3 28 -2 70 70 Calm 30.33 1027 10 16 0.00 0.00
9:55 pm 21:55 Clear 39 4 27 -3 61 61 E 3 6 30.33 1027 10 16 0.00 0.00
10:15 pm 22:15 Partly Cloudy 39 4 27 -3 61 61 ENE 3 6 30.33 1027 10 16 0.00 0.00
10:35 pm 22:35 Cloudy 39 4 27 -3 61 61 Calm 30.34 1027 10 16 0.00 0.00
10:55 pm 22:55 Cloudy 41 5 27 -3 57 57 E 3 6 30.32 1027 10 16 0.00 0.00
11:15 pm 23:15 Cloudy 41 5 28 -2 61 61 E 3 6 30.32 1027 10 16 0.00 0.00
11:35 pm 23:35 Cloudy 41 5 28 -2 61 61 E 3 6 30.31 1027 10 16 0.00 0.00
11:55 pm 23:55 Mostly Cloudy 41 5 27 -3 57 57 E 3 6 30.31 1027 10 16 0.00 0.00

Powered by AerisWeather